Regional Weather Roundup
Issued by NWS Pendleton, OR

Home | Current Version | Previous Version | Text Only | Print | Product List | Glossary On
Versions: 1 2 3 4 5 6 7 8 9 10 11 12 13 14 15 16 17 18 19 20 21 22 23 24 25 26 27 28 29 30 31 32 33 34 35 36 37 38 39 40 41 42 43 44 45 46 47 48 49 50
000
ASUS46 KPDT 210325
RWRPDT
PENDLETON REGIONAL WEATHER ROUNDUP
NATIONAL WEATHER SERVICE PENDLETON OREGON
800 PM PDT WED AUG 20 2014

NOTE: FAIR INDICATES FEW OR NO CLOUDS BELOW 12,000 FEET WITH NO
SIGNIFICANT WEATHER AND/OR OBSTRUCTIONS TO VISIBILITY.

# INDICATES UNOFFICIAL STATION AND DATA

WAZ520-210410-
EAST SLOPES OF WASHINGTON CASCADES

CITY            SKY/WX      TMP DP  RH  WIND    PRES   REMARKS
#CLE ELUM HS    N/A         62  49  62  W6      29.87R
#CLE ELUM 2NW   N/A         60  48  64  SW3     N/A
#CLE ELUM LAKE  N/A         59  48  67  CALM    29.82R
#CLIFFDEL 2NW   N/A         62  49  62  W6      N/A
#GLENWOOD       N/A         64  52  65  S2      29.81R
#MANASTASH CYN  N/A         62  41  46  CALM    29.89R
#NELSON         N/A         63  50  62  W1      29.86R
#NELSON 3SW     N/A         58  48  69  CALM    30.03R
#NILE           N/A         65  49  56  SE2     29.11R
#RONALD 2NW     N/A         62  49  62  NE2     29.83R
#TEANAWAY 4NE   N/A         63  51  65  W1      N/A
#TROUT LAKE 1NE N/A         63  51  65  NW8     29.85R
$$

WAZ521-210410-
SIMCOE HIGHLANDS

CITY            SKY/WX      TMP DP  RH  WIND    PRES   REMARKS
#BICKLETON HS   N/A         68  37  32  N3      29.94S
#CENTERVILLE 4W N/A         65  48  54  NW22    29.63R
#CENTERVILLE 1SWN/A         65  48  54  W20     29.80R
#GOLDENDALE     N/A         71  46  41  W14     N/A
#GOLDENDALE 1NE N/A         67  41  39  SW5     N/A
#GOLDENDALE 1S  N/A         65  49  56  W7      29.86S
#GOODNOE HILLS  N/A         70  49  47  W20     29.79R
#LYLE 6NE       N/A         65  50  58  SW7     29.82R
$$

WAZ026-210410-
KITTITAS VALLEY

CITY            SKY/WX      TMP DP  RH  WIND    PRES   REMARKS
ELLENSBURG AP   CLEAR       68  47  47  NW30G37 29.85R
#ELLENSBURG CWU N/A         67  47  49  NW12    29.75R
#ELLENSBURG 3NE N/A         64  49  58  NW15G28 29.85R
#ELLENSBURG     N/A         69  49  49  NW13    N/A
#ELLENSBURG 1E  N/A         68  43  40  CALM    N/A
#KITTITAS 3S    N/A         67  47  49  NW7     29.75R
#THORP 6N       N/A         61  48  62  NW22G33 29.83R
$$

WAZ027-210410-
YAKIMA VALLEY

CITY            SKY/WX      TMP DP  RH  WIND    PRES   REMARKS
SUNNYSIDE AP    CLEAR       75  48  38  NW8     29.77S
YAKIMA AIRPORT  CLEAR       75  44  33  N21G28  29.81R
YAKIMA-VAGABOND CLEAR       73  40  30  N16     29.84R
#COWICHE 1N     N/A         68  47  47  NW12    30.02R
#DONALD 2NE     N/A         74  34  23  S5      30.13R
#GRANDVIEW      N/A         75  51  43  CALM    29.75S
#MABTON         N/A         78  47  34  NW2     29.77R
#MOXEE 2E       N/A         71  24  17  W3      29.77R
#NACHES 2SW     N/A         68  48  49  W15G25  29.84R
#OUTLOOK DOT    N/A         N/A N/A N/A NW9     N/A
#SELAH 8E       N/A         69  39  33  W13     N/A
#TERRACE HTS    N/A         72  41  33  NW7     29.72R
#TOPPENISH      N/A         75  45  34  N6      29.67R
#WAPATO 4NE     N/A         74  34  23  S5      30.13R
#WEST VALLEY    N/A         73  44  35  NW12    29.73R
#W YAKIMA       N/A         72  47  41  N6      29.77R
#WHITE SWAN 5E  N/A         77  49  37  W7      29.75R
#WILEY CITY 3W  N/A         75  38  26  CALM    29.80R
$$

WAZ028-210410-
LOWER COLUMBIA BASIN...WASHINGTON

CITY            SKY/WX      TMP DP  RH  WIND    PRES   REMARKS
PASCO           PTCLDY      80  46  30  SW9     29.77R
PROSSER AWOS    N/A         72  52  49  CALM    29.80R
RICHLAND AWOS   PTCLDY      81  43  26  S8      29.76S
#BASIN CITY 5SW N/A         75  54  48  CALM    29.78R
#BENTON CITY    N/A         79  45  30  S13     29.64R
#CONNELL 5N     N/A         74  50  43  SW2     29.72R
#CONNELL 5NW    N/A         72  52  49  CALM    29.70R
#ELTOPIA        N/A         75  54  48  SW1     29.71R
#ELTOPIA 6NW    N/A         72  54  53  SW6     28.76R
#KENNEWICK 3S   N/A         75  50  41  S5      29.75R
#PATERSON       N/A         75  52  45  SW12    29.74R
#PROSSER        N/A         79  40  25  S6      29.73R
#SAGEMOOR 2W    N/A         74  52  46  CALM    29.61R
#TOUCHET 2S     N/A         71  45  39  W1      29.72R
#WEST PASCO     N/A         79  50  36  S1      29.72S
$$

WAZ029-210410-
FOOTHILLS OF THE BLUES...WASHINGTON

CITY            SKY/WX      TMP DP  RH  WIND    PRES   REMARKS
WALLA WALLA AP  PTCLDY      76  26  16  SW5     29.82R
#COLLEGE PLACE  N/A         84  37  19  CALM    29.78R
#DAYTON SCHOOL  N/A         74  39  28  NE3     29.81R
#LOWDEN 2SE     N/A         75  41  29  CALM    29.74R
#PLEASANT VIEW 1N/A         72  44  37  SW5     29.78R
#PRESCOTT       N/A         73  48  41  CALM    29.73R
#SUDBURY        N/A         71  N/A N/A CALM    N/A
#WHITMAN COLLEGEN/A         77  35  22  S2      29.80R
#WAITSBURG 8N   N/A         66  30  26  CALM    29.71F
#WALLA WALLA 5E N/A         98  49  19  CALM    N/A    HX 95
#WALLA WALLA U  N/A         78  37  23  CALM    29.75R
#WHITMAN MISSIONN/A         76  42  30  CALM    29.76R
$$

WAZ030-210410-
BLUE MOUNTAINS...WASHINGTON

CITY            SKY/WX      TMP DP  RH  WIND    PRES   REMARKS
$$

ORZ009-041-WAZ024-210410-
COLUMBIA RIVER GORGE

CITY            SKY/WX      TMP DP  RH  WIND    PRES   REMARKS
HOOD RIVER AP   CLEAR       70  48  46  W3      29.92R
THE DALLES AP   CLEAR       73  47  40  W13G24  29.86R
#ARLINGTON AIRPON/A         70  48  46  W18     N/A
#ARLINGTON HS   N/A         74  47  38  NW12    29.69R
#MARYHILL 2W    N/A         71  50  47  W5      N/A
#MOSIER 1S      N/A         68  38  33  W6      29.97R
#MURDOCK        N/A         73  52  48  NW20G32 29.86R
#RUFUS DOT      N/A         N/A N/A N/A N8      N/A

$$

ORZ510-210410-
NORTH CENTRAL OREGON

CITY            SKY/WX      TMP DP  RH  WIND    PRES   REMARKS
#CHENOWITH 1W   N/A         65  46  50  W32     N/A
#COW CYN RST AREN/A         65  36  34  W8      N/A
#DUFUR 9E       N/A         62  45  54  W12     29.89R
#GRASS VALLEY   N/A         62  44  52  SW5     N/A
#GRASS VALLEY 1SN/A         63  44  50  NW7     29.87S
#KENT DOT       N/A         62  35  36  W13     N/A
#MORO SCHOOL    N/A         66  52  61  W17G26  29.90R
#SHANIKO 5WSW   N/A         61  33  35  NW8     N/A
#SHANIKO 4NW    N/A         61  37  41  NW9     29.97R
#TYGH VALLEY 2NEN/A         71  45  39  N1      29.82R
#WAPANITIA AIRPON/A         66  44  45  W12     29.85R
#WASCO DOT      N/A         68  48  49  W15     N/A
#WASCO AIRPORT  N/A         67  44  43  W20     N/A
#WASCO 5NE      N/A         66  48  52  N14G29  29.81R
$$

ORZ511-210410-
CENTRAL OREGON

CITY            SKY/WX      TMP DP  RH  WIND    PRES   REMARKS
BEND AIRPORT    CLEAR       64  41  43  N8      29.98R
MADRAS AIRPORT  CLEAR       68  43  40  N9      29.95R
REDMOND AIRPORT CLEAR       67  38  34  NW12    29.95R
#BEND 6E        N/A         64  41  43  CALM    29.78R
#BEND 1SW       N/A         63  38  39  CALM    N/A
#BEND-AWBREY    N/A         66  44  45  S3      29.83R
#BEND-KIM LN    N/A         66  46  48  NW2     29.95R
#CROOKED RVR RANN/A         69  46  44  CALM    29.81R
#CULVER         N/A         66  39  37  NW5     29.90R
#LAKE BILLY CHINN/A         68   2   7  W3      29.97R
#POWELL BUTTE   N/A         66  42  42  NW1     29.62R
#PRINEVILLE 3N  N/A         65  45  48  CALM    29.79R
#WARM SPRINGS   N/A         71  47  42  SW7     29.89R


ORZ509-210410-
EAST SLOPES OF OREGON CASCADES

CITY            SKY/WX      TMP DP  RH  WIND    PRES   REMARKS
#BLUE BOX PASS  N/A         52  -1  11  W6      N/A
#BLACK BUTTE RNCN/A         61  48  62  CALM    29.84R
#CAMP SHERMAN   N/A         62  46  56  CALM    29.88R
#LA PINE DOT    N/A         61  38  42  W7      N/A
#LA PINE 4NW    N/A         60  46  60  CALM    29.88R
#LAVA BUTTE DOT N/A         61  37  41  CALM    N/A
#SISTERS AIRPOR N/A         64  51  63  N7      29.96R
#SISTERS ODOT   N/A         65  N/A N/A SW6     N/A
#SISTERS 1NW    N/A         66  43  43  NW8     N/A
#SISTERS 3N     N/A         62  45  54  NW3     N/A
#SUNRIVER       N/A         61  46  58  W1      29.72R
#SUTTLE LK DOT  N/A         56  47  72  CALM    N/A
#TUMALO 3W      N/A         64  44  48  NW8     29.73R
#WANOGA BUTTE D N/A         54  41  61  N3      N/A

$$

ORZ044-210410-
LOWER COLUMBIA BASIN...OREGON

CITY            SKY/WX      TMP DP  RH  WIND    PRES   REMARKS
HERMISTON       CLEAR       75  45  34  SW10    29.80R
#BOARDMAN SCHOOLN/A         74  49  41  W5      29.78R
#BOARDMAN 3W    N/A         71  48  44  W14     29.47S
#BOARDMAN 8SW   N/A         72  50  46  SW14    29.77R
#ECHO 8SW       N/A         74  45  35  W15     29.78R
#IONE SCHOOL    N/A         71  44  38  SW9     29.84R
#IRRIGON 4NW    N/A         77  51  40  S10     N/A
#UMATILLA SCHOOLN/A         76  58  54  CALM    29.85R
#UMATILLA       N/A         77  47  35  CALM    29.76R
$$

ORZ507-210410-
NORTHERN FOOTHILLS OF THE BLUES

CITY            SKY/WX      TMP DP  RH  WIND    PRES   REMARKS
PENDLETON AIRPT PTCLDY      73  38  28  W14     29.83R
#ADAMS 3WNW     N/A         70  42  36  W6      29.76R
#ATHENA         N/A         72  39  30  CALM    29.78R
#HELIX SCHOOL   N/A         73  43  34  NW6     29.75R
#HELIX 3N       N/A         70  40  34  W9      29.82R
#HOLDMAN 5SE    N/A         72  44  37  W6      29.84R
#HOLDMAN 6E     N/A         70  42  36  E5      29.59R
#M-F GROVE ELEM N/A         74  29  19  CALM    29.81R
#M-FREEWATER 5SEN/A         71  47  42  CALM    29.83R
#PDT AQUATIC CTRN/A         76  37  24  W6      29.56R
#PENDLETON DNTN N/A         76  37  24  CALM    29.78S
#PDT SUNRIDGE   N/A         75  40  28  NW7     29.83R
#PENDLETON 7NW  N/A         74  46  37  W7      N/A
#PILOT ROCK     N/A         70  33  25  W1      29.88R
#TUTUILLA       N/A         71  43  36  W6      29.71R
#UMAPINE 2E     N/A         65  43  45  CALM    29.76R
#WESTON SCHOOL  N/A         70  28  21  NW1     29.81R

$$

ORZ508-210410-
SOUTHERN FOOTHILLS OF THE BLUES

CITY            SKY/WX      TMP DP  RH  WIND    PRES   REMARKS
LEXINGTON       CLEAR       70  43  38  W9      29.88R
#AJAX           N/A         66  39  37  W7      29.86R
#CONDON SCHOOL  N/A         64  43  46  W3      29.89S
#CONDON 5W      N/A         64  39  40  W10     29.91S
#FOSSIL SCHOOL  N/A         68  37  32  W5      29.90R
#HEPPNER 4NE    N/A         64  41  43  NW6     29.79S
#LEXINGTON 2SE  N/A         70  44  39  CALM    29.85R
#MIKKALO        N/A         68  41  37  W13     29.89R
#OLEX 4N        N/A         69  46  44  SW20G26 29.84R
#RUGGS 5NE      N/A         64  37  37  W6      30.11R
#RUGGS 2SW      N/A         64  37  37  W7      29.84R

$$

ORZ502-503-210410-
BLUE MOUNTAINS

CITY            SKY/WX      TMP DP  RH  WIND    PRES   REMARKS
MEACHAM         PTCLDY      63  26  24  CALM    29.94S
#BATTLE MTN DOT N/A         60  39  46  N1      N/A
#HEPPNER 15SE   N/A         58  39  49  CALM    29.88R
#LADD CYN SMT   N/A         65  35  33  NW7     N/A
#LADD CREEK ODOTN/A         67  44  43  CALM    N/A
#LONG CREEK HS  N/A         66  42  42  CALM    N/A
#N POWDER DOT   N/A         67  45  45  N13     N/A
#PIKES PEAK     N/A         66  26  22  SW9     27.99S
#TOLLGATE       N/A         56  33  42  CALM    29.92R
#TROY SCHOOL    N/A         74  41  30  CALM    29.61R
#UKIAH          N/A         65  32  29  N3      29.83R
#WESTON 4E      N/A         66  32  28  S2      29.73R
$$

ORZ505-210410-
JOHN DAY BASIN

CITY            SKY/WX      TMP DP  RH  WIND    PRES   REMARKS
JOHN DAY        PTCLDY      69  39  33  W8      29.93R
#JOHN DAY KJDY  N/A         72  43  35  CALM    30.14F
#MONUMENT HS    N/A         75  36  24  N5      29.86R
#MT. VERNON 5SE N/A         68  40  36  CALM    29.90R
#WINLOCK        N/A         64  34  33  CALM    30.01R
$$

ORZ506-210410-
OCHOCO AND JOHN DAY HIGHLANDS

CITY            SKY/WX      TMP DP  RH  WIND    PRES   REMARKS
#BUCK CREEK DOT N/A         71  49  46  NW10    N/A
#HORSE RIDGE DO N/A         64  39  40  NW12    N/A
#KEYES SMT DOT  N/A         64  28  25  W8      N/A
#PAULINA SCHOOL N/A         N/A N/A N/A N6      29.95R
#PINE MTN OBS   N/A         55  40  57  NW7     N/A
#PRAIRIE CITY   N/A         65  41  41  CALM    29.81R
#SENECA 9NW     N/A         63  41  44  CALM    29.75R
$$

ORZ049-210410-
GRANDE RONDE VALLEY

CITY            SKY/WX      TMP DP  RH  WIND    PRES   REMARKS
LA GRANDE       PTCLDY      68  34  28  NW10    29.89R
#COVE           N/A         65  48  54  CALM    29.81R
#COVE SCHOOL    N/A         66  45  47  CALM    29.88R
#COVE 6NW       N/A         66  43  43  CALM    29.80R
#ELGIN 3N       N/A         66  34  30  CALM    29.63R
#ELGIN 1E       N/A         70  40  34  CALM    N/A
#IMBLER SCHOOL  N/A         66  36  33  N1      29.86R
#ISLAND CITY 4N N/A         66  45  47  CALM    29.70R
#LADD CYN DOT   N/A         68  42  39  N1      N/A
#LA GRANDE ELEM N/A         70  32  24  CALM    29.89R
#UNION 1S       N/A         67  46  47  CALM    29.67R
$$

ORZ050-210410-
WALLOWA COUNTY

CITY            SKY/WX      TMP DP  RH  WIND    PRES   REMARKS
JOSEPH AIRPORT  PTCLDY      64  39  40  CALM    29.95R
#ENTERPRISE AP  N/A         67  33  28  NW12    29.87R
#ENTERPRISE HS  N/A         66  41  40  NW5     29.93R
#IMNAHA SCHOOL  N/A         78  38  24  CALM    29.78R
#IMNAHA 10S     N/A         75  45  34  SW1     29.86R
#JOSEPH 3N      N/A         61  43  51  CALM    29.97R
#JOSEPH 3W      N/A         58  44  60  SW1     29.83R
#MT HOWARD 8000 N/A         47  38  71  NW3     30.14S
#PROMISE 1S     N/A         64  37  37  E2      29.91R
#SHEEP RDG 7000 N/A         50  36  58  CALM    29.78R
#WALLOWA SCHOOL N/A         67  39  36  CALM    30.66R



$$



USA.gov is the U.S. government's official web portal to all federal, state and local government web resources and services.